Hourly Data Report for October 05, 2015

All times are specified in Local Standard Time (LST). Add 1 hour to adjust for Daylight Saving Time where and when it is observed.

PENTICTON A
BRITISH COLUMBIA

49°27'45.000" N
119°36'08.000" W
344.40 m
1126146
71889
YYF

Download Data

Hourly Data (October 2015)
Hourly Data Report for October 5, 2015
Temp Definition
°C
Dew Point Temp Definition
°C
Rel Hum Definition
%
Wind Dir Definition
10's deg

Wind Spd Definition
km/h
Visibility Definition
km
Stn Press Definition
kPa
Hmdx Definition


Wind Chill Definition


Weather Definition


TIME
00:00 Legend Double Dagger 6.9 3.4 78 35 16 24.1 97.53     LegendNANA
01:00 Legend Double Dagger 5.3 3.0 85 36 13 24.1 97.58     Clear
02:00 Legend Double Dagger 4.8 2.5 85 1 10 24.1 97.59     LegendNANA
03:00 Legend Double Dagger 4.6 2.3 85 36 11 24.1 97.63     LegendNANA
04:00 Legend Double Dagger 4.7 2.2 84 1 14 24.1 97.67     Clear
05:00 Legend Double Dagger 3.3 2.0 91 36 10 24.1 97.71     LegendNANA
06:00 Legend Double Dagger 3.3 1.5 88 1 10 24.1 97.77     LegendNANA
07:00 Legend Double Dagger 4.1 2.5 89 1 8 24.1 97.81     Mainly Clear
08:00 Legend Double Dagger 9.7 5.5 75 35 7 24.1 97.80     LegendNANA
09:00 Legend Double Dagger 10.8 6.0 72 35 14 24.1 97.76     LegendNANA
10:00 Legend Double Dagger 11.7 6.0 68 36 10 24.1 97.71     Mostly Cloudy
11:00 Legend Double Dagger 13.2 6.6 64 3 13 24.1 97.69     LegendNANA
12:00 Legend Double Dagger 13.5 6.9 64 35 17 24.1 97.64     LegendNANA
13:00 Legend Double Dagger 14.8 5.9 55 35 16 24.1 97.58     Mostly Cloudy
14:00 Legend Double Dagger 15.5 6.1 53 36 12 24.1 97.53     LegendNANA
15:00 Legend Double Dagger 15.6 5.9 52 36 11 24.1 97.48     LegendNANA
16:00 Legend Double Dagger 15.1 6.7 57 35 10 24.1 97.46     Mostly Cloudy
17:00 Legend Double Dagger 13.8 7.4 65 32 5 24.1 97.45     LegendNANA
18:00 Legend Double Dagger 9.8 6.0 77 30 3 24.1 97.48     LegendNANA
19:00 Legend Double Dagger 9.7 5.7 76 36 10 24.1 97.53     Mostly Cloudy
20:00 Legend Double Dagger 8.6 5.2 79 1 10 24.1 97.56     LegendNANA
21:00 Legend Double Dagger 7.3 4.3 81 35 9 24.1 97.57     LegendNANA
22:00 Legend Double Dagger 6.5 4.5 87 36 2 24.1 97.58     Mostly Cloudy
23:00 Legend Double Dagger 6.6 4.9 89 2 3 24.1 97.58     LegendNANA

Notes on Data Quality.

Legend

  • E = Estimated
  • M = Missing
  • NA = Not Available
  • ‡ = Partner data that is not subject to review by the National Climate Archives
Date modified: